Time,TemperatureF,DewpointF,PressureIn,WindDirection,WindDirectionDegrees,WindSpeedMPH,WindSpeedGustMPH,Humidity,HourlyPrecipIn,Conditions,Clouds,dailyrainin,SoftwareType,DateUTC
2013-01-12 00:01:00,44.8,42.6,29.80,South,180,1.0,2.0,92,0.00,,,0.48,meteohub,2013-01-12 05:01:00,
2013-01-12 00:02:00,45.0,42.8,29.80,South,180,4.0,4.0,92,0.00,,,0.48,meteohub,2013-01-12 05:02:00,
2013-01-12 00:03:00,45.1,43.0,29.80,SW,225,2.0,3.0,92,0.00,,,0.48,meteohub,2013-01-12 05:03:00,
2013-01-12 00:08:00,45.1,43.0,29.80,South,180,0.0,4.0,92,0.00,,,0.00,meteohub,2013-01-12 05:08:00,
2013-01-12 00:13:00,45.1,43.0,29.80,South,180,4.0,4.0,92,0.00,,,0.00,meteohub,2013-01-12 05:13:00,
2013-01-12 00:18:00,45.1,43.0,29.81,SW,225,2.0,4.0,92,0.00,,,0.00,meteohub,2013-01-12 05:18:00,
2013-01-12 00:23:00,45.7,43.7,29.81,South,180,2.0,4.0,93,0.00,,,0.00,meteohub,2013-01-12 05:23:00,
2013-01-12 00:28:00,45.7,43.7,29.81,SW,225,1.0,4.0,93,0.00,,,0.00,meteohub,2013-01-12 05:28:00,
2013-01-12 00:33:00,45.7,43.5,29.81,South,180,2.0,2.0,92,0.00,,,0.00,meteohub,2013-01-12 05:33:00,
2013-01-12 00:39:00,45.9,43.9,29.81,South,180,2.0,2.0,93,0.00,,,0.00,meteohub,2013-01-12 05:39:00,
2013-01-12 00:44:00,45.9,43.9,29.81,South,180,0.0,3.0,93,0.00,,,0.00,meteohub,2013-01-12 05:44:00,
2013-01-12 00:49:00,45.5,43.3,29.81,SW,225,0.0,3.0,92,0.00,,,0.00,meteohub,2013-01-12 05:49:00,
2013-01-12 00:54:00,45.3,43.2,29.80,SE,135,0.0,3.0,92,0.00,,,0.00,meteohub,2013-01-12 05:54:00,
2013-01-12 00:59:00,45.0,42.8,29.80,South,180,0.0,2.0,92,0.00,,,0.00,meteohub,2013-01-12 05:59:00,
2013-01-12 01:04:00,45.0,42.8,29.80,South,180,0.0,0.0,92,0.00,,,0.00,meteohub,2013-01-12 06:04:00,
2013-01-12 01:09:00,44.6,42.4,29.79,South,180,0.0,0.0,92,0.00,,,0.00,meteohub,2013-01-12 06:09:00,
2013-01-12 01:15:00,44.2,42.3,29.80,South,180,0.0,0.0,93,0.00,,,0.00,meteohub,2013-01-12 06:15:00,
2013-01-12 01:20:00,43.9,41.9,29.80,South,180,0.0,0.0,93,0.00,,,0.00,meteohub,2013-01-12 06:20:00,
2013-01-12 01:25:00,43.9,41.9,29.81,South,180,0.0,0.0,93,0.00,,,0.00,meteohub,2013-01-12 06:25:00,
2013-01-12 01:30:00,43.3,41.5,29.81,South,180,0.0,0.0,93,0.00,,,0.00,meteohub,2013-01-12 06:30:00,
2013-01-12 01:35:00,43.3,41.5,29.80,South,180,0.0,2.0,93,0.00,,,0.00,meteohub,2013-01-12 06:35:00,
2013-01-12 01:41:00,43.2,41.4,29.80,East,90,0.0,2.0,93,0.00,,,0.00,meteohub,2013-01-12 06:41:00,
2013-01-12 01:46:00,43.0,41.2,29.80,South,180,0.0,2.0,93,0.00,,,0.00,meteohub,2013-01-12 06:46:00,
2013-01-12 01:51:00,43.0,41.2,29.80,South,180,0.0,0.0,93,0.00,,,0.00,meteohub,2013-01-12 06:51:00,
2013-01-12 01:56:00,42.6,40.8,29.80,NE,45,0.0,0.0,93,0.00,,,0.00,meteohub,2013-01-12 06:56:00,
2013-01-12 02:01:00,42.1,40.3,29.80,East,90,0.0,0.0,93,0.00,,,0.00,meteohub,2013-01-12 07:01:00,
2013-01-12 02:06:00,41.9,40.1,29.80,NW,315,0.0,0.0,93,0.00,,,0.00,meteohub,2013-01-12 07:06:00,
2013-01-12 02:11:00,41.7,39.9,29.80,North,0,0.0,0.0,93,0.00,,,0.00,meteohub,2013-01-12 07:11:00,
2013-01-12 02:16:00,41.9,40.1,29.80,South,180,0.0,0.0,93,0.00,,,0.00,meteohub,2013-01-12 07:16:00,
2013-01-12 02:22:00,41.9,40.1,29.80,North,0,0.0,0.0,93,0.00,,,0.00,meteohub,2013-01-12 07:22:00,
2013-01-12 02:27:00,41.7,39.9,29.81,SW,225,0.0,0.0,93,0.00,,,0.00,meteohub,2013-01-12 07:27:00,
2013-01-12 02:32:00,41.7,39.9,29.81,NE,45,0.0,0.0,93,0.00,,,0.00,meteohub,2013-01-12 07:32:00,
2013-01-12 02:37:00,41.4,39.6,29.81,North,0,0.0,0.0,93,0.00,,,0.00,meteohub,2013-01-12 07:37:00,
2013-01-12 02:42:00,41.0,39.2,29.82,SW,225,0.0,0.0,93,0.00,,,0.00,meteohub,2013-01-12 07:42:00,
2013-01-12 02:47:00,41.0,39.2,29.82,South,180,0.0,0.0,93,0.00,,,0.00,meteohub,2013-01-12 07:47:00,
2013-01-12 02:52:00,41.4,39.6,29.82,West,270,0.0,0.0,93,0.00,,,0.00,meteohub,2013-01-12 07:52:00,
2013-01-12 02:57:00,41.2,39.4,29.81,West,270,0.0,0.0,93,0.00,,,0.00,meteohub,2013-01-12 07:57:00,
2013-01-12 03:02:00,41.4,39.6,29.82,West,270,0.0,0.0,93,0.00,,,0.00,meteohub,2013-01-12 08:02:00,
2013-01-12 03:07:00,41.4,39.6,29.82,West,270,0.0,0.0,93,0.00,,,0.00,meteohub,2013-01-12 08:07:00,
2013-01-12 03:12:00,41.7,39.9,29.82,West,270,0.0,0.0,93,0.00,,,0.00,meteohub,2013-01-12 08:12:00,
2013-01-12 03:17:00,42.1,40.5,29.82,West,270,0.0,0.0,94,0.00,,,0.00,meteohub,2013-01-12 08:17:00,
2013-01-12 03:23:00,41.5,39.7,29.82,West,270,0.0,0.0,93,0.00,,,0.00,meteohub,2013-01-12 08:23:00,
2013-01-12 03:28:00,41.2,39.4,29.82,West,270,0.0,0.0,93,0.00,,,0.00,meteohub,2013-01-12 08:28:00,
2013-01-12 03:33:00,41.4,39.6,29.82,South,180,0.0,0.0,93,0.00,,,0.00,meteohub,2013-01-12 08:33:00,
2013-01-12 03:38:00,41.5,39.9,29.81,South,180,0.0,0.0,94,0.00,,,0.00,meteohub,2013-01-12 08:38:00,
2013-01-12 03:43:00,41.7,40.1,29.81,South,180,0.0,0.0,94,0.00,,,0.00,meteohub,2013-01-12 08:43:00,
2013-01-12 03:48:00,41.7,40.1,29.81,SW,225,0.0,0.0,94,0.00,,,0.00,meteohub,2013-01-12 08:48:00,
2013-01-12 03:53:00,41.9,40.3,29.81,South,180,0.0,0.0,94,0.00,,,0.00,meteohub,2013-01-12 08:53:00,
2013-01-12 03:59:00,41.9,40.3,29.81,South,180,0.0,0.0,94,0.00,,,0.00,meteohub,2013-01-12 08:59:00,
2013-01-12 04:04:00,41.9,40.3,29.81,SE,135,0.0,0.0,94,0.00,,,0.00,meteohub,2013-01-12 09:04:00,
2013-01-12 04:09:00,41.9,40.3,29.81,SE,135,0.0,0.0,94,0.00,,,0.00,meteohub,2013-01-12 09:09:00,
2013-01-12 04:14:00,41.7,40.1,29.81,SE,135,0.0,0.0,94,0.00,,,0.00,meteohub,2013-01-12 09:14:00,
2013-01-12 04:19:00,41.5,39.9,29.81,SE,135,0.0,0.0,94,0.00,,,0.00,meteohub,2013-01-12 09:19:00,
2013-01-12 04:24:00,41.2,39.6,29.80,East,90,0.0,0.0,94,0.00,,,0.00,meteohub,2013-01-12 09:24:00,
2013-01-12 04:29:00,41.5,39.9,29.80,East,90,0.0,0.0,94,0.00,,,0.00,meteohub,2013-01-12 09:29:00,
2013-01-12 04:35:00,41.4,39.7,29.80,East,90,0.0,0.0,94,0.00,,,0.00,meteohub,2013-01-12 09:35:00,
2013-01-12 04:40:00,41.0,39.4,29.80,East,90,0.0,0.0,94,0.00,,,0.00,meteohub,2013-01-12 09:40:00,
2013-01-12 04:45:00,40.8,39.2,29.80,East,90,0.0,0.0,94,0.00,,,0.00,meteohub,2013-01-12 09:45:00,
2013-01-12 04:50:00,40.8,39.2,29.80,East,90,0.0,0.0,94,0.00,,,0.00,meteohub,2013-01-12 09:50:00,
2013-01-12 04:56:00,40.5,38.8,29.80,East,90,0.0,0.0,94,0.00,,,0.00,meteohub,2013-01-12 09:56:00,
2013-01-12 05:01:00,40.5,38.8,29.80,South,180,0.0,0.0,94,0.00,,,0.00,meteohub,2013-01-12 10:01:00,
2013-01-12 05:06:00,40.5,38.8,29.79,South,180,0.0,0.0,94,0.00,,,0.00,meteohub,2013-01-12 10:06:00,
2013-01-12 05:11:00,40.8,39.6,29.79,SW,225,0.0,0.0,95,0.00,,,0.00,meteohub,2013-01-12 10:11:00,
2013-01-12 05:16:00,41.0,39.4,29.79,SW,225,0.0,0.0,94,0.00,,,0.00,meteohub,2013-01-12 10:16:00,
2013-01-12 05:21:00,41.5,39.9,29.80,South,180,0.0,0.0,94,0.00,,,0.00,meteohub,2013-01-12 10:21:00,
2013-01-12 05:26:00,41.7,40.1,29.80,SW,225,0.0,0.0,94,0.00,,,0.00,meteohub,2013-01-12 10:26:00,
2013-01-12 05:32:00,41.7,40.1,29.80,South,180,0.0,0.0,94,0.00,,,0.00,meteohub,2013-01-12 10:32:00,
2013-01-12 05:37:00,42.1,40.5,29.80,NE,45,0.0,0.0,94,0.00,,,0.00,meteohub,2013-01-12 10:37:00,
2013-01-12 05:42:00,42.1,40.5,29.80,NE,45,0.0,0.0,94,0.00,,,0.00,meteohub,2013-01-12 10:42:00,
2013-01-12 05:47:00,41.9,40.3,29.79,SW,225,0.0,0.0,94,0.00,,,0.00,meteohub,2013-01-12 10:47:00,
2013-01-12 05:52:00,42.4,40.8,29.80,South,180,0.0,0.0,94,0.00,,,0.00,meteohub,2013-01-12 10:52:00,
2013-01-12 05:57:00,43.0,41.4,29.80,South,180,0.0,0.0,94,0.00,,,0.00,meteohub,2013-01-12 10:57:00,
2013-01-12 06:02:00,43.0,41.4,29.81,South,180,0.0,0.0,94,0.00,,,0.00,meteohub,2013-01-12 11:02:00,
2013-01-12 06:07:00,43.0,41.4,29.81,South,180,0.0,0.0,94,0.00,,,0.00,meteohub,2013-01-12 11:07:00,
2013-01-12 06:12:00,43.3,41.7,29.80,South,180,0.0,0.0,94,0.00,,,0.00,meteohub,2013-01-12 11:12:00,
2013-01-12 06:17:00,43.3,41.7,29.80,South,180,0.0,0.0,94,0.00,,,0.00,meteohub,2013-01-12 11:17:00,
2013-01-12 06:23:00,43.0,41.4,29.81,South,180,0.0,0.0,94,0.00,,,0.00,meteohub,2013-01-12 11:23:00,
2013-01-12 06:28:00,43.0,41.4,29.81,South,180,0.0,0.0,94,0.00,,,0.00,meteohub,2013-01-12 11:28:00,
2013-01-12 06:33:00,42.8,41.2,29.81,South,180,0.0,0.0,94,0.00,,,0.00,meteohub,2013-01-12 11:33:00,
2013-01-12 06:38:00,43.0,41.4,29.81,SW,225,0.0,0.0,94,0.00,,,0.00,meteohub,2013-01-12 11:38:00,
2013-01-12 06:43:00,43.3,41.7,29.81,SW,225,0.0,0.0,94,0.00,,,0.00,meteohub,2013-01-12 11:43:00,
2013-01-12 06:48:00,43.3,41.7,29.82,West,270,0.0,0.0,94,0.00,,,0.00,meteohub,2013-01-12 11:48:00,
2013-01-12 06:53:00,43.2,41.5,29.82,South,180,0.0,0.0,94,0.00,,,0.00,meteohub,2013-01-12 11:53:00,
2013-01-12 06:58:00,43.3,41.7,29.82,NW,315,0.0,0.0,94,0.00,,,0.00,meteohub,2013-01-12 11:58:00,
2013-01-12 07:03:00,43.3,41.7,29.82,West,270,0.0,0.0,94,0.00,,,0.00,meteohub,2013-01-12 12:03:00,
2013-01-12 07:09:00,43.5,41.9,29.82,SW,225,0.0,0.0,94,0.00,,,0.00,meteohub,2013-01-12 12:09:00,
2013-01-12 07:14:00,43.5,41.9,29.82,SW,225,0.0,0.0,94,0.00,,,0.00,meteohub,2013-01-12 12:14:00,
2013-01-12 07:19:00,43.7,42.1,29.82,West,270,0.0,0.0,94,0.00,,,0.00,meteohub,2013-01-12 12:19:00,
2013-01-12 07:24:00,43.7,42.1,29.83,SW,225,0.0,0.0,94,0.00,,,0.00,meteohub,2013-01-12 12:24:00,
2013-01-12 07:29:00,43.7,42.1,29.83,West,270,0.0,0.0,94,0.00,,,0.00,meteohub,2013-01-12 12:29:00,
2013-01-12 07:34:00,43.7,42.1,29.83,SW,225,0.0,0.0,94,0.00,,,0.00,meteohub,2013-01-12 12:34:00,
2013-01-12 07:39:00,44.1,42.4,29.83,South,180,0.0,0.0,94,0.00,,,0.00,meteohub,2013-01-12 12:39:00,
2013-01-12 07:44:00,44.1,42.4,29.83,SW,225,2.0,3.0,94,0.00,,,0.00,meteohub,2013-01-12 12:44:00,
2013-01-12 07:50:00,43.9,42.3,29.83,South,180,0.0,3.0,94,0.00,,,0.00,meteohub,2013-01-12 12:50:00,
2013-01-12 07:55:00,43.9,42.3,29.83,South,180,0.0,3.0,94,0.00,,,0.00,meteohub,2013-01-12 12:55:00,
2013-01-12 08:00:00,44.1,42.4,29.83,South,180,0.0,2.0,94,0.00,,,0.00,meteohub,2013-01-12 13:00:00,
2013-01-12 08:05:00,44.1,42.4,29.83,East,90,0.0,0.0,94,0.00,,,0.00,meteohub,2013-01-12 13:05:00,
2013-01-12 08:10:00,43.9,42.3,29.83,SW,225,0.0,0.0,94,0.00,,,0.00,meteohub,2013-01-12 13:10:00,
2013-01-12 08:15:00,43.9,42.3,29.85,SW,225,0.0,0.0,94,0.00,,,0.00,meteohub,2013-01-12 13:15:00,
2013-01-12 08:20:00,43.9,42.3,29.84,SW,225,0.0,0.0,94,0.00,,,0.00,meteohub,2013-01-12 13:20:00,
2013-01-12 08:26:00,43.9,42.3,29.85,North,0,0.0,0.0,94,0.00,,,0.00,meteohub,2013-01-12 13:26:00,
2013-01-12 08:31:00,43.3,41.7,29.87,SW,225,0.0,0.0,94,0.00,,,0.00,meteohub,2013-01-12 13:31:00,
2013-01-12 08:36:00,43.9,42.3,29.86,East,90,0.0,0.0,94,0.00,,,0.00,meteohub,2013-01-12 13:36:00,
2013-01-12 08:41:00,44.2,42.6,29.86,SW,225,2.0,0.0,94,0.00,,,0.00,meteohub,2013-01-12 13:41:00,
2013-01-12 08:46:00,44.6,43.0,29.86,SW,225,3.0,3.0,94,0.00,,,0.00,meteohub,2013-01-12 13:46:00,
2013-01-12 08:51:00,44.8,43.2,29.87,South,180,2.0,3.0,94,0.00,,,0.00,meteohub,2013-01-12 13:51:00,
2013-01-12 08:56:00,45.0,43.3,29.87,WNW,293,0.0,3.0,94,0.00,,,0.00,meteohub,2013-01-12 13:56:00,
2013-01-12 09:02:00,45.0,43.3,29.87,SW,225,0.0,3.0,94,0.00,,,0.00,meteohub,2013-01-12 14:02:00,
2013-01-12 09:07:00,45.0,43.3,29.86,SW,225,0.0,3.0,94,0.00,,,0.00,meteohub,2013-01-12 14:07:00,
2013-01-12 09:12:00,45.0,43.3,29.87,SW,225,0.0,0.0,94,0.00,,,0.00,meteohub,2013-01-12 14:12:00,
2013-01-12 09:17:00,45.1,43.5,29.87,South,180,0.0,0.0,94,0.00,,,0.00,meteohub,2013-01-12 14:17:00,
2013-01-12 09:22:00,45.3,43.7,29.87,South,180,0.0,0.0,94,0.00,,,0.00,meteohub,2013-01-12 14:22:00,
2013-01-12 09:27:00,45.7,44.1,29.87,SW,225,0.0,0.0,94,0.00,,,0.00,meteohub,2013-01-12 14:27:00,
2013-01-12 09:32:00,45.9,44.2,29.87,South,180,0.0,0.0,94,0.00,,,0.00,meteohub,2013-01-12 14:32:00,
2013-01-12 09:37:00,46.0,44.4,29.87,SW,225,0.0,0.0,94,0.00,,,0.00,meteohub,2013-01-12 14:37:00,
2013-01-12 09:42:00,46.4,44.8,29.86,West,270,2.0,0.0,94,0.00,,,0.00,meteohub,2013-01-12 14:42:00,
2013-01-12 09:47:00,46.9,45.3,29.86,South,180,0.0,2.0,94,0.00,,,0.00,meteohub,2013-01-12 14:47:00,
2013-01-12 09:52:00,47.1,45.7,29.87,SW,225,0.0,2.0,95,0.00,,,0.00,meteohub,2013-01-12 14:52:00,
2013-01-12 09:57:00,47.5,46.0,29.87,SW,225,0.0,2.0,95,0.00,,,0.00,meteohub,2013-01-12 14:57:00,
2013-01-12 10:02:00,47.7,46.2,29.87,SW,225,0.0,2.0,95,0.00,,,0.00,meteohub,2013-01-12 15:02:00,
2013-01-12 10:07:00,47.8,46.4,29.88,WSW,248,1.0,4.0,95,0.00,,,0.00,meteohub,2013-01-12 15:07:00,
2013-01-12 10:12:00,48.2,46.6,29.88,South,180,3.0,4.0,94,0.00,,,0.00,meteohub,2013-01-12 15:12:00,
2013-01-12 10:17:00,48.6,46.9,29.88,West,270,2.0,4.0,94,0.00,,,0.00,meteohub,2013-01-12 15:17:00,
2013-01-12 10:22:00,48.9,47.3,29.88,SW,225,2.0,3.0,94,0.00,,,0.00,meteohub,2013-01-12 15:22:00,
2013-01-12 10:27:00,49.3,47.3,29.88,SW,225,2.0,4.0,93,0.00,,,0.00,meteohub,2013-01-12 15:27:00,
2013-01-12 10:32:00,49.6,47.7,29.87,South,180,2.0,4.0,93,0.00,,,0.00,meteohub,2013-01-12 15:32:00,
2013-01-12 10:37:00,50.0,47.5,29.88,South,180,2.0,4.0,91,0.00,,,0.00,meteohub,2013-01-12 15:37:00,
2013-01-12 10:42:00,50.4,47.8,29.88,SW,225,2.0,4.0,91,0.00,,,0.00,meteohub,2013-01-12 15:42:00,
2013-01-12 10:47:00,50.7,47.8,29.88,West,270,6.0,6.0,90,0.00,,,0.00,meteohub,2013-01-12 15:47:00,
2013-01-12 10:52:00,51.1,47.7,29.87,SW,225,2.0,6.0,88,0.00,,,0.00,meteohub,2013-01-12 15:52:00,
2013-01-12 10:57:00,51.3,47.5,29.88,SW,225,3.0,6.0,87,0.00,,,0.00,meteohub,2013-01-12 15:57:00,
2013-01-12 11:02:00,51.3,47.3,29.88,SW,225,4.0,6.0,86,0.00,,,0.00,meteohub,2013-01-12 16:02:00,
2013-01-12 11:07:00,51.4,47.1,29.87,SW,225,3.0,5.0,85,0.00,,,0.00,meteohub,2013-01-12 16:07:00,
2013-01-12 11:12:00,51.8,47.1,29.87,South,180,0.0,5.0,84,0.00,,,0.00,meteohub,2013-01-12 16:12:00,
2013-01-12 11:17:00,51.8,47.1,29.88,SW,225,0.0,4.0,84,0.00,,,0.00,meteohub,2013-01-12 16:17:00,
2013-01-12 11:22:00,52.2,47.5,29.88,SW,225,2.0,3.0,84,0.00,,,0.00,meteohub,2013-01-12 16:22:00,
2013-01-12 11:27:00,52.3,47.3,29.87,South,180,2.0,4.0,83,0.00,,,0.00,meteohub,2013-01-12 16:27:00,
2013-01-12 11:32:00,52.5,47.5,29.87,SW,225,1.0,4.0,83,0.00,,,0.00,meteohub,2013-01-12 16:32:00,
2013-01-12 11:37:00,52.7,47.7,29.87,South,180,2.0,3.0,83,0.00,,,0.00,meteohub,2013-01-12 16:37:00,
2013-01-12 11:42:00,52.7,47.7,29.86,SW,225,0.0,3.0,83,0.00,,,0.00,meteohub,2013-01-12 16:42:00,
2013-01-12 11:47:00,52.9,47.8,29.87,SW,225,2.0,2.0,83,0.00,,,0.00,meteohub,2013-01-12 16:47:00,
2013-01-12 11:52:00,53.1,47.7,29.86,West,270,3.0,3.0,82,0.00,,,0.00,meteohub,2013-01-12 16:52:00,
2013-01-12 11:57:00,53.2,47.8,29.86,SW,225,3.0,3.0,82,0.00,,,0.00,meteohub,2013-01-12 16:57:00,
2013-01-12 12:02:00,53.6,47.7,29.86,SW,225,0.0,8.0,80,0.00,,,0.00,meteohub,2013-01-12 17:02:00,
2013-01-12 12:07:00,53.8,47.8,29.86,SW,225,2.0,8.0,80,0.00,,,0.00,meteohub,2013-01-12 17:07:00,
2013-01-12 12:12:00,54.0,47.7,29.86,SW,225,2.0,8.0,79,0.00,,,0.00,meteohub,2013-01-12 17:12:00,
2013-01-12 12:17:00,54.3,48.0,29.86,SW,225,4.0,6.0,79,0.00,,,0.00,meteohub,2013-01-12 17:17:00,
2013-01-12 12:22:00,54.7,48.0,29.86,South,180,4.0,6.0,78,0.00,,,0.00,meteohub,2013-01-12 17:22:00,
2013-01-12 12:27:00,55.0,48.0,29.85,SW,225,4.0,6.0,77,0.00,,,0.00,meteohub,2013-01-12 17:27:00,
2013-01-12 12:32:00,55.4,48.0,29.86,SW,225,8.0,8.0,76,0.00,,,0.00,meteohub,2013-01-12 17:32:00,
2013-01-12 12:37:00,55.8,48.4,29.85,SW,225,2.0,8.0,76,0.00,,,0.00,meteohub,2013-01-12 17:37:00,
2013-01-12 12:42:00,56.1,48.7,29.86,West,270,4.0,8.0,76,0.00,,,0.00,meteohub,2013-01-12 17:42:00,
2013-01-12 12:47:00,56.3,48.6,29.86,West,270,2.0,8.0,75,0.00,,,0.00,meteohub,2013-01-12 17:47:00,
2013-01-12 12:52:00,56.3,48.6,29.85,West,270,0.0,5.0,75,0.00,,,0.00,meteohub,2013-01-12 17:52:00,
2013-01-12 12:57:00,56.5,48.4,29.85,South,180,3.0,5.0,74,0.00,,,0.00,meteohub,2013-01-12 17:57:00,
2013-01-12 13:02:00,56.7,48.4,29.85,WNW,293,3.0,5.0,74,0.00,,,0.00,meteohub,2013-01-12 18:02:00,
2013-01-12 13:07:00,57.0,48.4,29.85,SW,225,3.0,6.0,73,0.00,,,0.00,meteohub,2013-01-12 18:07:00,
2013-01-12 13:12:00,57.2,48.2,29.85,West,270,4.0,6.0,72,0.00,,,0.00,meteohub,2013-01-12 18:12:00,
2013-01-12 13:17:00,57.4,48.0,29.85,East,90,4.0,4.0,71,0.00,,,0.00,meteohub,2013-01-12 18:17:00,
2013-01-12 13:22:00,57.6,48.2,29.85,West,270,4.0,4.0,71,0.00,,,0.00,meteohub,2013-01-12 18:22:00,
2013-01-12 13:27:00,57.6,47.8,29.85,SW,225,4.0,5.0,70,0.00,,,0.00,meteohub,2013-01-12 18:27:00,
2013-01-12 13:32:00,57.7,48.0,29.85,SW,225,3.0,5.0,70,0.00,,,0.00,meteohub,2013-01-12 18:32:00,
2013-01-12 13:37:00,57.9,48.6,29.85,SW,225,4.0,5.0,71,0.00,,,0.00,meteohub,2013-01-12 18:37:00,
2013-01-12 13:42:00,58.1,48.0,29.85,South,180,2.0,5.0,69,0.00,,,0.00,meteohub,2013-01-12 18:42:00,
2013-01-12 13:47:00,58.3,48.2,29.85,SW,225,2.0,4.0,69,0.00,,,0.00,meteohub,2013-01-12 18:47:00,
2013-01-12 13:52:00,58.5,48.4,29.85,West,270,3.0,4.0,69,0.00,,,0.00,meteohub,2013-01-12 18:52:00,
2013-01-12 13:57:00,59.2,48.2,29.85,NW,315,2.0,3.0,67,0.00,,,0.00,meteohub,2013-01-12 18:57:00,
2013-01-12 14:02:00,59.9,48.6,29.85,NW,315,5.0,5.0,66,0.00,,,0.00,meteohub,2013-01-12 19:02:00,
2013-01-12 14:07:00,60.6,48.7,29.86,SW,225,4.0,5.0,65,0.00,,,0.00,meteohub,2013-01-12 19:07:00,
2013-01-12 14:12:00,60.8,48.2,29.86,SW,225,5.0,5.0,63,0.00,,,0.00,meteohub,2013-01-12 19:12:00,
2013-01-12 14:17:00,60.6,48.0,29.86,NW,315,2.0,5.0,63,0.00,,,0.00,meteohub,2013-01-12 19:17:00,
2013-01-12 14:22:00,60.4,47.8,29.87,SW,225,3.0,5.0,63,0.00,,,0.00,meteohub,2013-01-12 19:22:00,
2013-01-12 14:27:00,60.3,47.1,29.86,West,270,5.0,5.0,62,0.00,,,0.00,meteohub,2013-01-12 19:27:00,
2013-01-12 14:32:00,60.6,46.6,29.87,SW,225,4.0,6.0,60,0.00,,,0.00,meteohub,2013-01-12 19:32:00,
2013-01-12 14:37:00,60.8,45.9,29.87,SW,225,4.0,6.0,58,0.00,,,0.00,meteohub,2013-01-12 19:37:00,
2013-01-12 14:42:00,60.4,45.7,29.88,South,180,4.0,6.0,58,0.00,,,0.00,meteohub,2013-01-12 19:42:00,
2013-01-12 14:47:00,60.4,45.1,29.87,SW,225,4.0,5.0,57,0.00,,,0.00,meteohub,2013-01-12 19:47:00,
2013-01-12 14:52:00,60.6,44.8,29.88,West,270,4.0,5.0,56,0.00,,,0.00,meteohub,2013-01-12 19:52:00,
2013-01-12 14:57:00,60.6,44.8,29.87,NW,315,4.0,6.0,56,0.00,,,0.00,meteohub,2013-01-12 19:57:00,
2013-01-12 15:02:00,60.6,44.8,29.88,NE,45,3.0,6.0,56,0.00,,,0.00,meteohub,2013-01-12 20:02:00,
2013-01-12 15:07:00,60.8,44.6,29.88,NW,315,4.0,6.0,55,0.00,,,0.00,meteohub,2013-01-12 20:07:00,
2013-01-12 15:12:00,60.6,44.4,29.88,SW,225,2.0,6.0,55,0.00,,,0.00,meteohub,2013-01-12 20:12:00,
2013-01-12 15:17:00,60.6,44.4,29.88,SW,225,4.0,4.0,55,0.00,,,0.00,meteohub,2013-01-12 20:17:00,
2013-01-12 15:22:00,60.3,43.0,29.88,SW,225,2.0,4.0,53,0.00,,,0.00,meteohub,2013-01-12 20:22:00,
2013-01-12 15:27:00,60.3,43.0,29.88,SE,135,2.0,4.0,53,0.00,,,0.00,meteohub,2013-01-12 20:27:00,
2013-01-12 15:32:00,60.3,43.5,29.88,SW,225,2.0,4.0,54,0.00,,,0.00,meteohub,2013-01-12 20:32:00,
2013-01-12 15:37:00,60.3,44.1,29.88,SW,225,0.0,2.0,55,0.00,,,0.00,meteohub,2013-01-12 20:37:00,
2013-01-12 15:42:00,60.1,43.9,29.88,SW,225,2.0,2.0,55,0.00,,,0.00,meteohub,2013-01-12 20:42:00,
2013-01-12 15:47:00,59.5,43.9,29.88,SW,225,2.0,2.0,56,0.00,,,0.00,meteohub,2013-01-12 20:47:00,
2013-01-12 15:53:00,59.4,43.2,29.88,SE,135,2.0,3.0,55,0.00,,,0.00,meteohub,2013-01-12 20:53:00,
2013-01-12 15:58:00,59.4,43.7,29.88,South,180,2.0,3.0,56,0.00,,,0.00,meteohub,2013-01-12 20:58:00,
2013-01-12 16:03:00,59.2,43.5,29.88,SW,225,2.0,3.0,56,0.00,,,0.00,meteohub,2013-01-12 21:03:00,
2013-01-12 16:08:00,59.2,43.5,29.88,SW,225,2.0,4.0,56,0.00,,,0.00,meteohub,2013-01-12 21:08:00,
2013-01-12 16:13:00,59.2,43.5,29.88,SW,225,3.0,6.0,56,0.00,,,0.00,meteohub,2013-01-12 21:13:00,
2013-01-12 16:18:00,59.0,43.3,29.88,West,270,2.0,6.0,56,0.00,,,0.00,meteohub,2013-01-12 21:18:00,
2013-01-12 16:23:00,58.6,43.9,29.88,SW,225,0.0,4.0,58,0.00,,,0.00,meteohub,2013-01-12 21:23:00,
2013-01-12 16:28:00,58.1,43.9,29.89,South,180,2.0,4.0,59,0.00,,,0.00,meteohub,2013-01-12 21:28:00,
2013-01-12 16:34:00,57.6,43.3,29.88,SW,225,2.0,3.0,59,0.00,,,0.00,meteohub,2013-01-12 21:34:00,
2013-01-12 16:39:00,57.2,43.5,29.88,SW,225,0.0,2.0,60,0.00,,,0.00,meteohub,2013-01-12 21:39:00,
2013-01-12 16:44:00,56.7,43.7,29.88,South,180,2.0,2.0,62,0.00,,,0.00,meteohub,2013-01-12 21:44:00,
2013-01-12 16:49:00,56.3,43.9,29.89,SW,225,0.0,2.0,63,0.00,,,0.00,meteohub,2013-01-12 21:49:00,
2013-01-12 16:54:00,55.8,43.7,29.89,SW,225,0.0,2.0,64,0.00,,,0.00,meteohub,2013-01-12 21:54:00,
2013-01-12 16:59:00,55.0,43.2,29.89,NE,45,0.0,2.0,64,0.00,,,0.00,meteohub,2013-01-12 21:59:00,
2013-01-12 17:05:00,55.0,43.2,29.89,NE,45,0.0,2.0,64,0.00,,,0.00,meteohub,2013-01-12 22:05:00,
2013-01-12 17:10:00,54.0,42.8,29.90,West,270,0.0,0.0,66,0.00,,,0.00,meteohub,2013-01-12 22:10:00,
2013-01-12 17:15:00,53.6,43.0,29.90,West,270,0.0,0.0,67,0.00,,,0.00,meteohub,2013-01-12 22:15:00,
2013-01-12 17:20:00,53.1,42.8,29.91,South,180,0.0,0.0,68,0.00,,,0.00,meteohub,2013-01-12 22:20:00,
2013-01-12 17:25:00,52.7,42.8,29.91,SW,225,2.0,0.0,69,0.00,,,0.00,meteohub,2013-01-12 22:25:00,
2013-01-12 17:30:00,52.5,43.0,29.91,North,0,0.0,2.0,70,0.00,,,0.00,meteohub,2013-01-12 22:30:00,
2013-01-12 17:35:00,52.2,42.6,29.90,North,0,0.0,2.0,70,0.00,,,0.00,meteohub,2013-01-12 22:35:00,
2013-01-12 17:40:00,51.8,42.6,29.89,South,180,0.0,2.0,71,0.00,,,0.00,meteohub,2013-01-12 22:40:00,
2013-01-12 17:46:00,51.4,43.2,29.89,NE,45,0.0,0.0,73,0.00,,,0.00,meteohub,2013-01-12 22:46:00,
2013-01-12 17:51:00,51.3,43.0,29.88,South,180,0.0,0.0,73,0.00,,,0.00,meteohub,2013-01-12 22:51:00,
2013-01-12 17:56:00,51.3,43.3,29.88,West,270,0.0,0.0,74,0.00,,,0.00,meteohub,2013-01-12 22:56:00,
2013-01-12 18:01:00,51.1,43.2,29.88,West,270,0.0,0.0,74,0.00,,,0.00,meteohub,2013-01-12 23:01:00,
2013-01-12 18:06:00,50.5,42.6,29.89,East,90,0.0,0.0,74,0.00,,,0.00,meteohub,2013-01-12 23:06:00,
2013-01-12 18:12:00,50.4,42.4,29.89,East,90,0.0,0.0,74,0.00,,,0.00,meteohub,2013-01-12 23:12:00,
2013-01-12 18:17:00,50.0,42.4,29.89,East,90,0.0,0.0,75,0.00,,,0.00,meteohub,2013-01-12 23:17:00,
2013-01-12 18:22:00,49.5,42.3,29.89,East,90,0.0,0.0,76,0.00,,,0.00,meteohub,2013-01-12 23:22:00,
2013-01-12 18:27:00,48.9,41.7,29.88,North,0,0.0,0.0,76,0.00,,,0.00,meteohub,2013-01-12 23:27:00,
2013-01-12 18:32:00,48.4,41.5,29.88,North,0,0.0,0.0,77,0.00,,,0.00,meteohub,2013-01-12 23:32:00,
2013-01-12 18:37:00,48.4,41.9,29.88,North,0,0.0,0.0,78,0.00,,,0.00,meteohub,2013-01-12 23:37:00,
2013-01-12 18:42:00,48.2,41.7,29.88,North,0,0.0,0.0,78,0.00,,,0.00,meteohub,2013-01-12 23:42:00,
2013-01-12 18:48:00,48.0,42.1,29.89,North,0,0.0,0.0,80,0.00,,,0.00,meteohub,2013-01-12 23:48:00,
2013-01-12 18:53:00,47.7,41.7,29.89,North,0,0.0,0.0,80,0.00,,,0.00,meteohub,2013-01-12 23:53:00,
2013-01-12 18:58:00,47.1,41.4,29.89,North,0,0.0,0.0,80,0.00,,,0.00,meteohub,2013-01-12 23:58:00,
2013-01-12 19:03:00,46.9,41.2,29.89,South,180,0.0,0.0,80,0.00,,,0.00,meteohub,2013-01-13 00:03:00,
2013-01-12 19:08:00,46.9,41.7,29.90,NW,315,0.0,0.0,82,0.00,,,0.00,meteohub,2013-01-13 00:08:00,
2013-01-12 19:13:00,46.8,41.5,29.90,NW,315,0.0,0.0,82,0.00,,,0.00,meteohub,2013-01-13 00:13:00,
2013-01-12 19:19:00,46.6,41.4,29.89,NW,315,0.0,0.0,82,0.00,,,0.00,meteohub,2013-01-13 00:19:00,
2013-01-12 19:24:00,46.4,41.5,29.89,NW,315,0.0,0.0,83,0.00,,,0.00,meteohub,2013-01-13 00:24:00,
2013-01-12 19:29:00,46.2,41.4,29.89,East,90,0.0,0.0,83,0.00,,,0.00,meteohub,2013-01-13 00:29:00,
2013-01-12 19:34:00,46.0,41.2,29.89,East,90,0.0,0.0,83,0.00,,,0.00,meteohub,2013-01-13 00:34:00,
2013-01-12 19:39:00,45.9,41.0,29.89,East,90,0.0,0.0,83,0.00,,,0.00,meteohub,2013-01-13 00:39:00,
2013-01-12 19:44:00,45.5,40.6,29.88,North,0,0.0,0.0,83,0.00,,,0.00,meteohub,2013-01-13 00:44:00,
2013-01-12 19:50:00,45.1,40.3,29.88,North,0,0.0,0.0,83,0.00,,,0.00,meteohub,2013-01-13 00:50:00,
2013-01-12 19:55:00,44.8,39.9,29.88,North,0,0.0,0.0,83,0.00,,,0.00,meteohub,2013-01-13 00:55:00,
2013-01-12 20:00:00,44.6,39.7,29.88,North,0,0.0,0.0,83,0.00,,,0.00,meteohub,2013-01-13 01:00:00,
2013-01-12 20:05:00,44.4,39.9,29.88,North,0,0.0,0.0,84,0.00,,,0.00,meteohub,2013-01-13 01:05:00,
2013-01-12 20:10:00,44.2,39.7,29.88,North,0,0.0,0.0,84,0.00,,,0.00,meteohub,2013-01-13 01:10:00,
2013-01-12 20:15:00,43.9,39.4,29.88,North,0,0.0,0.0,84,0.00,,,0.00,meteohub,2013-01-13 01:15:00,
2013-01-12 20:20:00,43.5,39.0,29.88,North,0,0.0,0.0,84,0.00,,,0.00,meteohub,2013-01-13 01:20:00,
2013-01-12 20:26:00,43.5,39.4,29.88,South,180,0.0,0.0,85,0.00,,,0.00,meteohub,2013-01-13 01:26:00,
2013-01-12 20:31:00,43.7,39.6,29.88,South,180,0.0,0.0,85,0.00,,,0.00,meteohub,2013-01-13 01:31:00,
2013-01-12 20:36:00,43.7,39.7,29.88,South,180,0.0,0.0,86,0.00,,,0.00,meteohub,2013-01-13 01:36:00,
2013-01-12 20:41:00,43.7,39.7,29.88,South,180,0.0,0.0,86,0.00,,,0.00,meteohub,2013-01-13 01:41:00,
2013-01-12 20:46:00,43.5,39.6,29.88,South,180,0.0,0.0,86,0.00,,,0.00,meteohub,2013-01-13 01:46:00,
2013-01-12 20:52:00,43.5,39.6,29.87,South,180,0.0,0.0,86,0.00,,,0.00,meteohub,2013-01-13 01:52:00,
2013-01-12 20:57:00,43.5,39.6,29.87,South,180,0.0,0.0,86,0.00,,,0.00,meteohub,2013-01-13 01:57:00,
2013-01-12 21:02:00,43.3,39.4,29.87,NE,45,0.0,0.0,86,0.00,,,0.00,meteohub,2013-01-13 02:02:00,
2013-01-12 21:07:00,43.2,39.2,29.87,NE,45,0.0,0.0,86,0.00,,,0.00,meteohub,2013-01-13 02:07:00,
2013-01-12 21:12:00,43.0,39.0,29.87,NE,45,0.0,0.0,86,0.00,,,0.00,meteohub,2013-01-13 02:12:00,
2013-01-12 21:17:00,42.8,38.8,29.87,NE,45,0.0,0.0,86,0.00,,,0.00,meteohub,2013-01-13 02:17:00,
2013-01-12 21:22:00,42.8,38.8,29.87,NE,45,0.0,0.0,86,0.00,,,0.00,meteohub,2013-01-13 02:22:00,
2013-01-12 21:27:00,43.0,39.4,29.87,North,0,3.0,0.0,87,0.00,,,0.00,meteohub,2013-01-13 02:27:00,
2013-01-12 21:32:00,42.8,39.2,29.87,South,180,0.0,3.0,87,0.00,,,0.00,meteohub,2013-01-13 02:32:00,
2013-01-12 21:37:00,43.2,39.6,29.87,SW,225,0.0,3.0,87,0.00,,,0.00,meteohub,2013-01-13 02:37:00,
2013-01-12 21:42:00,43.3,39.7,29.87,NE,45,0.0,3.0,87,0.00,,,0.00,meteohub,2013-01-13 02:42:00,
2013-01-12 21:47:00,43.3,40.1,29.88,South,180,0.0,0.0,88,0.00,,,0.00,meteohub,2013-01-13 02:47:00,
2013-01-12 21:52:00,43.5,40.3,29.88,NE,45,0.0,0.0,88,0.00,,,0.00,meteohub,2013-01-13 02:52:00,
2013-01-12 21:57:00,43.5,40.3,29.87,NE,45,0.0,0.0,88,0.00,,,0.00,meteohub,2013-01-13 02:57:00,
2013-01-12 22:02:00,43.3,40.1,29.87,NE,45,0.0,0.0,88,0.00,,,0.00,meteohub,2013-01-13 03:02:00,
2013-01-12 22:07:00,43.3,40.1,29.87,NE,45,0.0,0.0,88,0.00,,,0.00,meteohub,2013-01-13 03:07:00,
2013-01-12 22:12:00,43.2,39.9,29.86,NE,45,0.0,0.0,88,0.00,,,0.00,meteohub,2013-01-13 03:12:00,
2013-01-12 22:17:00,43.2,39.9,29.86,North,0,0.0,1.0,88,0.00,,,0.00,meteohub,2013-01-13 03:17:00,
2013-01-12 22:22:00,42.8,39.6,29.86,SW,225,0.0,1.0,88,0.00,,,0.00,meteohub,2013-01-13 03:22:00,
2013-01-12 22:27:00,42.8,39.6,29.86,SW,225,0.0,0.0,88,0.00,,,0.00,meteohub,2013-01-13 03:27:00,
2013-01-12 22:32:00,42.8,39.6,29.86,North,0,0.0,0.0,88,0.00,,,0.00,meteohub,2013-01-13 03:32:00,
2013-01-12 22:37:00,42.8,39.6,29.86,South,180,0.0,0.0,88,0.00,,,0.00,meteohub,2013-01-13 03:37:00,
2013-01-12 22:43:00,42.6,39.6,29.85,North,0,0.0,0.0,89,0.00,,,0.00,meteohub,2013-01-13 03:43:00,
2013-01-12 22:48:00,42.4,39.4,29.85,North,0,0.0,0.0,89,0.00,,,0.00,meteohub,2013-01-13 03:48:00,
2013-01-12 22:53:00,42.6,39.6,29.85,North,0,0.0,0.0,89,0.00,,,0.00,meteohub,2013-01-13 03:53:00,
2013-01-12 22:58:00,42.8,39.6,29.85,North,0,0.0,0.0,88,0.00,,,0.00,meteohub,2013-01-13 03:58:00,
2013-01-12 23:03:00,42.8,39.6,29.85,NW,315,0.0,0.0,88,0.00,,,0.00,meteohub,2013-01-13 04:03:00,
2013-01-12 23:08:00,42.4,39.4,29.84,North,0,0.0,0.0,89,0.00,,,0.00,meteohub,2013-01-13 04:08:00,
2013-01-12 23:13:00,42.3,39.2,29.83,North,0,0.0,0.0,89,0.00,,,0.00,meteohub,2013-01-13 04:13:00,
2013-01-12 23:18:00,42.4,39.4,29.84,NE,45,0.0,0.0,89,0.00,,,0.00,meteohub,2013-01-13 04:18:00,
2013-01-12 23:24:00,43.0,39.9,29.83,SW,225,0.0,2.0,89,0.00,,,0.00,meteohub,2013-01-13 04:24:00,
2013-01-12 23:29:00,43.3,40.3,29.83,NE,45,0.0,2.0,89,0.00,,,0.00,meteohub,2013-01-13 04:29:00,
2013-01-12 23:34:00,43.9,41.2,29.84,South,180,0.0,2.0,90,0.00,,,0.00,meteohub,2013-01-13 04:34:00,
2013-01-12 23:39:00,44.1,41.4,29.84,North,0,0.0,2.0,90,0.00,,,0.00,meteohub,2013-01-13 04:39:00,
2013-01-12 23:44:00,44.2,41.5,29.84,NE,45,0.0,2.0,90,0.01,,,0.01,meteohub,2013-01-13 04:44:00,
2013-01-12 23:49:00,44.2,41.5,29.84,North,0,0.0,2.0,90,0.01,,,0.01,meteohub,2013-01-13 04:49:00,
2013-01-12 23:55:00,43.9,41.2,29.83,NE,45,0.0,0.0,90,0.01,,,0.01,meteohub,2013-01-13 04:55:00,